カタログに戻る

FREGAT R/B

LostMEO
NORAD 41176·ROCKET BODY·🇷🇺 Russia

打ち上げ Dec 17, 2015 から Guiana Space Centre

Loading…

次のパス (今後24時間)

TLE

古いSource: Space-Track

元期: Aug 5, 2026, 02:29 UTC

1 41176U 15079C   26217.10381632 -.00000004  00000-0  00000-0 0  9998
2 41176  55.7847 103.9466 0013127 257.8780 102.0428  1.67560796 65079

AllMySatでFREGAT R/Bをリアルタイム追跡

Download on the App Store